Simultaneous Nadir Overpasses (SNOs) Predictions

Prediction of SNOs between GOES-14 and NPP Satellite Orbit:

Table of predicted SNOs for the next 14.0 days since TLE Epoch: 8/26/2023
Index Date Time (GOES-14) GOES-14 Lat,Lon NPP Lat,Lon Distance(km) Time Diff (sec)
1 08/26/2023 20:31:14 -0.44,-108.53 0.14,-105.96 293.28 80
2 08/28/2023 08:53:02 0.43,-108.62 0.99,-111.23 297.67 80
3 08/29/2023 08:31:36 0.43,-108.61 -0.01,-106.70 218.18 80
4 08/30/2023 20:53:32 -0.43,-108.51 -1.19,-112.00 397.67 80
5 08/31/2023 20:37:26 -0.43,-108.51 -0.19,-107.47 118.87 80
6 09/02/2023 08:56:33 0.42,-108.61 1.32,-112.75 470.88 80
7 09/03/2023 08:37:48 0.42,-108.61 0.32,-108.21 45.54 80
8 09/05/2023 20:40:57 -0.42,-108.50 -0.55,-108.97 54.23 80
9 09/06/2023 20:24:51 -0.42,-108.50 0.46,-104.44 462.36 80
10 09/08/2023 08:43:59 0.40,-108.60 0.67,-109.72 127.70 80
